RH
17 18 20 22 26 31 37 42 47 51 54 57 58 56 53 51 48 45 43 41 39 38 36 34 32 31 31 31 31 31 32 32 32 31 29 26 24 22 20 18 16 14 12 12 14 14 14 17 19 21 23 24 23 21 19 16 14 13 11 10 9 9 10
18 19 20 22 24 27 30 33 37 40 42 43 43 41 39 38 37 35 35 34 33 34 34 34 33 34 35 36 37 38 40 40 39 37 33 30 28 25 23 21 18 15 12 10 10 11 11 11 13 16 19 22 25 25 24 22 19 17 15 12 11 10 10
18 19 21 22 23 24 26 28 30 32 33 34 34 34 34 34 34 34 34 34 35 36 37 37 37 39 41 43 45 48 50 49 45 41 36 33 31 28 26 25 23 19 15 12 11 11 10 10 10 10 12 15 19 23 26 27 25 22 20 17 14 12 11
18 20 22 22 23 24 25 26 27 29 30 31 32 32 33 35 35 36 36 37 38 39 39 40 42 46 51 55 57 58 56 52 47 43 40 36 34 31 29 27 25 22 19 15 13 13 12 12 12 11 10 10 12 15 20 24 27 28 26 23 20 16 13
18 20 21 23 23 24 24 25 26 28 30 32 33 34 35 36 37 37 38 40 42 43 45 48 52 58 64 65 64 60 56 52 49 46 42 39 36 33 29 27 25 22 20 17 15 13 13 13 13 12 12 11 11 11 12 16 21 27 29 29 27 23 18
18 19 21 22 23 23 24 25 26 27 30 32 34 35 36 37 38 40 42 45 47 50 54 59 64 69 70 67 62 59 56 53 50 46 42 37 33 30 26 24 22 20 18 17 15 14 14 14 14 13 13 13 13 12 11 11 13 18 25 29 32 31 26
17 18 19 20 21 22 22 23 25 27 30 33 34 36 37 39 42 46 49 51 54 58 63 69 73 72 69 65 62 60 56 53 48 43 38 34 29 26 22 20 18 18 17 16 15 14 14 14 14 14 14 13 13 13 12 12 11 12 16 22 28 32 33
17 18 19 19 20 21 21 23 26 29 32 34 36 40 42 45 49 52 54 56 59 64 70 75 75 72 69 68 66 62 58 53 48 42 36 31 27 23 20 19 18 17 17 16 15 15 14 13 13 13 14 14 13 13 13 12 12 11 11 14 20 26 32
20 20 21 21 22 23 25 27 30 33 36 39 43 47 49 52 55 57 58 60 64 71 77 79 77 75 75 75 72 69 64 56 49 40 33 28 25 21 20 19 19 19 18 17 16 14 13 13 12 12 12 12 13 13 13 13 13 12 12 12 13 18 24
25 25 26 27 28 30 32 34 37 40 43 47 50 53 55 59 61 60 60 64 69 75 79 79 77 77 77 77 76 73 65 56 47 38 30 26 23 22 22 21 20 20 19 18 17 15 14 13 12 12 13 12 12 13 13 13 13 12 12 12 12 13 16
30 31 32 33 35 37 39 42 46 48 51 57 61 63 63 62 60 59 61 66 71 74 75 74 74 75 75 76 76 70 60 49 41 34 30 27 26 25 24 24 24 23 23 22 19 18 18 18 16 16 16 13 12 13 13 13 14 13 13 13 12 12 13
34 35 37 38 41 44 47 52 56 59 64 70 73 72 67 60 56 59 65 71 74 74 74 74 73 73 76 78 75 64 52 43 36 32 30 28 28 29 30 32 32 31 30 29 27 24 23 24 24 24 24 21 16 14 13 13 13 13 13 14 13 12 13
36 39 40 42 45 49 56 63 67 69 73 77 78 73 64 57 57 64 71 75 77 77 77 76 75 77 82 81 69 54 43 37 33 31 31 32 34 36 39 43 44 42 38 35 33 30 29 31 32 30 31 32 25 17 14 13 13 14 13 14 14 14 13
39 41 43 44 47 53 62 70 73 73 76 79 78 71 62 58 62 70 77 80 81 81 80 79 82 86 85 75 59 45 38 34 33 34 34 37 41 45 49 52 52 51 49 44 39 34 32 37 42 39 39 42 36 23 18 17 15 14 14 14 14 15 14
41 43 45 46 50 57 67 74 74 73 77 81 79 69 61 62 68 75 81 84 85 83 81 84 89 90 80 63 48 41 38 37 36 36 39 45 52 56 57 56 56 58 58 57 51 42 36 37 43 45 47 52 50 36 25 22 20 16 15 15 15 15 14
42 45 46 49 54 61 69 75 75 75 79 84 80 69 62 65 72 78 84 87 87 84 84 90 95 91 73 53 44 44 43 40 38 40 51 62 69 71 68 64 67 71 71 69 64 55 46 41 41 44 48 58 65 57 41 32 26 20 17 16 15 15 15
44 48 48 51 58 64 69 76 80 79 81 85 80 70 65 69 75 81 87 88 87 85 88 95 98 87 66 50 47 48 46 46 49 57 67 74 76 78 77 77 84 89 88 86 80 70 61 54 51 52 53 58 66 67 62 51 34 23 21 18 15 15 14
45 51 51 55 61 65 71 79 84 82 82 85 82 73 68 71 77 83 87 86 84 85 90 97 97 81 59 48 49 51 52 58 66 74 79 77 72 74 81 90 96 96 94 95 92 84 76 68 64 63 61 60 60 61 66 63 46 35 31 23 15 16 16
44 52 55 58 61 66 72 79 84 84 82 84 84 77 71 73 78 83 84 82 81 85 92 98 91 74 56 49 52 58 64 71 78 82 81 75 69 74 84 91 90 89 93 99 100 96 84 71 66 64 59 58 59 58 60 59 50 43 39 27 18 18 19
44 52 57 59 61 67 73 78 83 85 83 83 85 81 75 75 80 82 81 80 80 84 92 95 83 66 53 51 60 71 76 79 83 82 77 73 75 80 81 80 81 88 96 100 103 102 94 83 80 78 71 64 60 57 60 63 57 47 39 31 27 26 23
43 51 56 58 60 66 75 80 83 85 84 84 86 85 80 79 83 83 79 78 80 85 90 90 78 61 51 54 70 84 84 81 82 79 74 76 82 80 74 73 81 89 91 90 93 98 99 100 102 102 99 92 80 66 62 66 67 62 53 42 34 30 26
40 50 55 56 58 66 77 83 83 83 84 85 88 91 89 85 85 84 78 76 80 84 88 86 73 57 49 58 79 93 89 82 81 79 77 80 80 75 71 72 78 82 84 86 90 92 96 101 104 106 107 107 101 89 77 68 64 65 67 60 45 34 28
38 47 53 54 56 65 78 85 84 83 85 89 92 96 98 95 90 86 80 77 80 83 86 84 73 54 46 59 85 97 90 83 82 82 80 79 76 74 72 72 75 80 84 88 90 91 95 100 103 105 107 106 106 104 95 80 65 58 63 66 56 42 33
35 43 49 51 54 66 80 87 86 86 90 93 96 99 102 101 96 90 85 83 84 86 87 85 74 54 42 57 85 98 91 85 84 83 80 79 78 77 75 74 77 79 80 82 86 89 94 99 102 102 103 104 104 103 99 94 86 79 78 79 69 52 41
32 40 47 49 52 65 83 91 90 92 96 96 96 98 100 101 99 96 93 91 91 93 92 87 76 56 39 49 77 95 93 88 87 84 82 81 81 81 80 81 81 80 80 84 91 95 98 102 103 100 100 101 100 99 100 100 98 95 94 92 81 63 48
31 36 43 47 50 62 83 94 95 96 98 94 93 97 102 104 105 104 99 94 95 99 99 93 84 65 41 38 63 87 94 91 90 89 86 85 85 86 88 88 88 88 90 94 99 103 106 106 104 102 104 106 104 104 105 102 97 92 91 94 91 80 66
30 35 40 45 49 60 78 93 96 96 96 93 93 100 106 107 107 106 104 100 100 105 105 102 99 84 54 34 47 75 90 91 90 92 91 89 89 90 92 96 98 97 98 100 104 108 109 105 102 102 104 103 101 103 103 97 92 92 97 102 102 95 90
29 33 38 42 46 56 73 90 97 98 98 96 95 100 106 108 107 106 106 104 102 103 103 101 102 97 72 42 37 60 83 89 88 91 93 92 93 95 97 100 103 103 102 104 106 107 103 95 90 89 88 87 89 92 91 83 80 88 100 105 100 95 99
31 32 36 40 45 53 69 87 99 102 101 96 92 92 96 101 103 101 98 96 93 92 93 93 94 94 82 55 37 46 72 88 89 89 93 94 95 100 102 102 103 105 104 103 100 96 91 83 78 75 73 75 81 85 82 78 80 90 100 99 92 91 98
31 31 34 38 42 48 61 78 91 98 96 90 85 83 85 93 97 95 92 92 89 87 89 91 92 94 89 71 46 37 55 81 91 90 92 94 95 98 100 101 101 102 102 98 92 86 82 76 71 66 63 65 70 72 71 73 79 87 91 87 83 87 96
31 30 32 35 39 45 54 69 82 89 87 82 78 77 80 91 99 97 94 95 93 90 91 93 93 96 96 85 62 39 40 65 88 93 92 94 95 93 94 97 98 98 97 94 89 85 80 73 65 62 60 58 57 56 57 61 70 78 83 84 84 89 95
34 33 33 35 38 43 51 65 78 87 86 81 78 77 80 91 100 99 98 100 97 93 94 94 92 94 96 93 78 53 36 47 74 92 96 95 95 92 90 93 96 96 94 94 91 87 83 76 69 67 64 56 52 52 53 58 71 81 85 86 88 90 92
36 35 35 36 39 43 50 61 75 85 86 82 79 78 82 92 99 99 98 101 100 96 96 96 93 92 94 95 88 67 42 36 56 83 96 97 95 94 91 92 95 96 94 96 96 93 89 82 73 67 61 54 53 56 60 69 81 85 82 81 84 87 90
43 39 37 37 40 43 50 60 74 84 86 83 80 78 81 91 99 100 98 99 99 97 98 99 99 97 96 97 95 81 55 36 40 67 92 99 96 94 93 93 96 97 95 97 99 99 96 86 71 58 52 52 54 58 66 78 84 78 72 74 80 85 90
49 45 41 39 41 45 51 62 77 89 91 88 85 83 85 93 100 102 102 101 99 97 97 98 100 101 100 100 101 92 70 43 33 51 82 99 98 94 93 94 97 98 98 99 101 102 101 93 77 62 55 55 58 63 74 87 87 75 72 81 88 92 98
48 46 43 40 41 45 52 63 79 92 96 94 93 91 92 97 102 102 103 105 104 102 99 97 97 99 99 101 104 99 81 53 32 38 68 95 101 96 93 94 97 99 100 100 101 102 102 100 92 80 69 67 72 79 88 99 100 91 87 91 94 97 101
Wind_Speed
66 64 63 61 59 58 57 57 56 56 56 55 55 56 56 56 57 57 57 58 58 58 59 59 59 60 61 63 64 65 68 70 72 75 77 79 81 82 84 87 90 94 94 93 93 95 97 99 100 100 99 99 100 102 105 107 109 112 116 118 119 120 121
63 61 60 58 56 55 55 54 54 54 54 53 53 53 53 54 54 54 54 54 54 54 55 56 57 58 60 62 64 66 68 71 73 75 76 77 79 80 81 83 85 87 87 85 84 86 91 96 98 100 100 100 99 100 102 104 105 107 110 113 116 118 119
60 58 56 54 53 52 52 51 51 51 51 50 50 50 50 50 50 50 50 50 51 52 54 55 56 58 60 63 65 67 70 73 74 76 77 76 77 78 78 80 82 82 81 79 76 76 80 86 90 93 96 99 100 100 101 102 103 104 105 108 111 114 115
56 54 52 50 50 49 49 48 48 48 47 47 47 47 46 46 47 47 47 48 50 52 54 55 57 59 62 65 67 70 72 74 75 75 76 76 76 76 76 77 79 79 79 77 73 71 73 78 82 83 87 92 95 97 101 102 102 103 103 104 106 109 111
52 50 48 47 46 46 46 45 45 44 44 43 43 43 43 44 45 46 47 49 51 53 54 56 58 61 64 67 69 71 73 73 74 74 74 74 74 74 75 75 76 77 77 76 73 70 71 75 78 79 80 84 88 90 95 100 102 103 103 103 104 105 106
48 46 45 44 44 43 43 42 41 41 40 40 40 41 41 43 44 46 48 50 52 54 56 58 60 63 66 68 70 70 71 72 72 73 72 72 72 72 73 73 74 74 75 75 74 73 72 75 79 80 79 81 85 87 89 93 97 101 103 104 104 104 104
45 44 42 41 41 40 39 39 38 37 37 37 38 39 41 43 45 47 49 51 53 55 57 59 62 64 66 68 68 69 70 71 71 72 71 71 71 71 71 72 72 73 74 75 75 75 75 76 80 83 81 82 85 86 86 88 92 96 100 103 105 105 104
43 41 40 39 37 36 35 34 34 34 35 36 38 40 42 45 47 49 50 52 54 55 57 60 62 64 65 66 67 69 70 71 71 71 70 69 70 71 71 72 72 73 74 75 75 76 76 78 81 83 82 83 85 86 86 87 90 92 94 98 103 105 105
40 39 37 36 35 33 33 32 32 33 35 37 39 42 45 46 48 50 51 53 54 55 57 59 61 62 63 65 67 69 70 71 72 71 70 69 70 71 72 72 73 73 73 74 74 74 74 76 78 79 80 80 82 85 86 88 90 90 90 94 98 102 105
39 37 35 34 33 32 32 32 33 35 37 39 42 44 46 47 49 51 51 52 53 54 55 57 59 61 62 64 66 68 70 71 71 71 70 70 70 71 71 71 71 70 70 69 69 68 69 71 72 73 74 75 77 81 84 86 88 89 90 92 94 96 100
39 37 36 34 33 32 32 33 34 37 39 41 44 46 47 48 49 50 50 50 51 53 55 57 58 60 62 64 66 68 69 69 70 70 69 69 69 69 68 67 66 65 65 64 63 61 61 64 64 64 66 69 71 74 78 81 85 87 89 91 92 91 93
39 38 36 35 34 33 33 34 36 39 40 42 46 48 49 49 48 48 48 49 51 53 55 57 58 60 61 63 66 67 68 68 68 68 68 67 65 64 63 62 62 62 61 60 59 57 55 56 56 56 58 61 63 67 71 76 80 83 85 88 90 89 89
39 38 37 36 35 34 34 35 38 40 42 44 46 48 49 48 47 47 48 50 52 54 56 57 58 59 60 62 64 66 66 67 66 65 64 62 60 58 58 58 59 59 59 58 56 54 51 50 50 51 50 52 57 62 66 69 72 76 79 83 87 88 88
39 38 38 37 36 35 35 36 40 42 43 45 47 48 48 48 47 48 49 51 52 54 56 57 57 58 59 61 63 65 65 65 63 61 58 56 55 54 54 55 55 56 56 56 55 52 48 45 46 46 44 45 51 56 60 63 65 68 73 78 82 86 87
39 38 38 38 37 36 36 38 41 43 44 45 47 48 48 47 47 48 49 51 52 54 55 55 56 57 58 60 62 62 62 60 58 56 54 53 52 51 52 52 52 52 53 54 54 52 47 43 42 42 40 40 45 50 54 57 59 62 67 72 77 81 84
39 38 38 38 38 37 37 39 42 44 45 46 48 48 47 47 47 48 49 51 52 53 54 54 55 56 57 59 59 58 58 57 56 53 50 48 47 47 47 47 47 48 49 49 50 49 47 44 42 40 38 37 40 44 49 53 57 59 63 68 73 76 79
39 38 38 38 38 38 38 40 43 45 45 46 48 48 47 47 47 48 49 50 51 52 52 53 54 54 56 56 55 54 54 55 54 50 45 43 41 41 42 42 41 42 43 43 44 44 44 43 42 40 38 37 37 39 43 50 55 57 59 64 69 72 74
38 38 38 38 39 39 39 40 43 45 46 47 48 48 47 47 47 47 49 50 50 50 51 51 52 53 53 53 51 51 52 52 49 45 41 40 39 37 36 35 36 37 37 37 39 39 40 40 40 41 40 39 37 37 40 46 51 53 55 59 63 66 68
38 37 37 38 39 39 40 40 42 45 46 47 48 48 47 46 46 47 48 49 48 48 49 50 50 50 51 50 49 49 50 48 44 40 39 38 37 34 32 32 33 33 33 33 34 36 37 38 39 40 40 39 38 37 39 43 47 49 52 55 58 60 63
38 37 37 38 39 40 40 40 41 44 46 47 48 48 47 47 47 47 48 48 48 47 48 48 48 47 47 47 47 48 47 43 40 38 37 35 33 32 31 30 28 28 28 29 30 32 35 36 37 38 39 38 37 36 37 40 43 45 47 51 54 56 60
38 37 37 38 40 40 40 40 41 43 45 46 47 48 48 47 47 48 49 48 47 46 47 47 46 45 45 44 44 45 44 41 38 37 34 32 31 31 29 26 23 23 24 25 25 27 29 31 32 34 36 37 37 36 35 37 39 40 42 46 49 52 57
38 37 37 38 39 40 40 40 41 43 44 45 47 48 48 48 47 48 49 48 47 46 46 46 45 44 43 41 40 41 41 40 37 35 33 31 30 29 27 24 21 20 20 20 20 21 22 23 26 29 31 33 35 36 37 37 37 37 39 42 44 46 51
38 37 37 37 39 39 39 40 41 42 43 45 46 47 47 48 48 49 50 49 47 46 46 46 45 43 41 38 36 37 39 39 36 34 32 31 29 27 26 24 21 19 18 17 18 18 18 20 24 26 28 30 33 35 37 38 36 35 37 39 40 41 45
38 37 37 37 38 39 39 39 40 42 43 44 45 45 46 47 48 49 50 50 48 47 47 47 45 42 39 35 33 34 37 37 36 33 32 30 29 27 26 24 22 20 18 17 18 19 21 23 26 28 29 30 32 34 35 37 36 35 36 37 38 38 40
37 37 37 37 36 37 38 38 39 41 42 43 44 44 44 45 47 48 50 50 49 48 48 48 47 43 39 34 31 31 34 35 35 34 32 31 29 28 27 25 24 22 21 21 23 25 27 28 29 31 31 32 33 33 34 35 36 36 35 36 36 35 37
38 37 37 36 36 36 36 37 38 39 41 42 42 43 43 44 45 47 48 49 48 47 48 49 48 45 41 36 31 28 30 32 33 33 32 32 30 29 27 26 25 24 24 24 26 28 28 28 28 29 30 31 31 31 33 34 35 34 33 33 34 33 32
38 38 37 35 35 35 35 36 37 38 40 41 41 41 42 42 43 45 46 46 46 45 46 47 47 46 44 40 33 27 26 28 29 30 31 31 30 29 27 27 26 25 24 26 28 27 25 24 24 24 26 27 27 28 30 31 31 30 29 31 32 30 28
38 38 37 35 34 34 34 35 36 37 39 40 40 39 39 40 40 42 42 42 41 42 43 44 44 43 43 40 36 31 27 26 27 28 29 29 29 28 26 25 24 23 24 26 25 23 21 20 19 19 21 22 23 24 26 27 26 25 24 26 28 27 25
38 37 37 35 34 34 34 33 34 36 37 38 38 38 37 37 38 40 40 39 39 39 40 41 41 41 40 39 37 33 29 27 26 26 27 27 27 26 25 24 22 22 23 22 20 18 17 17 17 17 18 19 20 21 22 23 22 21 21 24 25 24 24
38 37 36 35 34 33 33 33 33 34 36 38 38 37 37 37 39 40 40 39 39 39 39 40 40 40 40 38 36 34 30 27 26 26 26 26 25 24 23 22 21 20 20 18 16 15 15 15 16 16 17 17 18 19 20 20 20 21 22 23 24 23 22
38 36 36 35 34 33 33 33 33 34 36 37 37 37 37 38 39 41 40 39 39 39 39 39 39 39 39 38 36 34 32 28 26 26 26 25 25 24 22 20 19 19 17 15 14 14 14 15 15 15 16 16 16 16 17 18 19 20 21 21 22 23 23
37 36 35 35 34 33 33 34 34 35 36 37 37 38 38 38 39 41 40 39 39 39 38 38 38 38 38 38 36 34 32 30 26 25 26 26 25 25 23 20 18 17 16 14 13 13 14 14 15 15 15 14 13 13 14 16 17 18 19 20 20 21 21
37 35 34 34 34 34 34 34 35 35 36 37 37 38 38 38 40 41 40 39 38 38 38 38 38 38 38 38 37 35 32 30 28 25 25 25 25 24 23 21 18 16 15 14 13 13 14 15 15 15 14 13 11 11 12 15 17 18 18 18 18 18 18
39 36 34 34 34 34 35 35 36 36 37 38 38 38 38 39 40 41 41 39 38 37 37 37 38 38 38 38 38 36 33 31 29 26 25 25 25 24 23 21 18 16 15 14 13 13 14 14 14 14 13 11 10 9 11 15 18 18 16 16 16 16 17
38 37 35 33 33 33 34 35 36 37 38 38 39 40 39 39 40 41 41 41 40 38 37 37 37 37 38 37 37 37 35 32 29 27 25 24 24 24 22 20 18 16 15 13 13 13 13 14 14 14 13 12 10 9 11 15 18 16 14 14 15 16 17
34 34 34 33 32 32 33 35 36 37 38 39 40 40 40 40 41 41 41 41 40 39 38 38 37 36 37 37 37 37 36 33 30 27 25 24 24 24 22 20 17 16 14 13 12 12 12 13 13 13 13 12 10 10 11 14 16 15 13 13 14 15 16
Wind_Direction
300 298 296 294 292 289 287 285 283 281 280 278 277 275 274 273 272 272 271 271 271 272 272 272 273 273 274 274 274 274 274 273 273 272 271 270 269 268 268 267 266 265 261 258 257 256 253 252 251 249 249 248 247 247 247 246 247 247 246 245 244 244 243
301 298 296 294 292 289 287 285 283 281 280 278 276 275 274 273 272 272 272 272 273 273 274 275 275 276 276 277 277 277 277 276 276 275 273 272 271 270 269 269 267 266 264 261 259 258 256 254 253 251 249 248 247 246 246 246 246 246 246 245 244 243 243
302 299 297 295 292 290 287 285 283 281 280 278 276 274 273 273 273 273 273 274 275 276 277 278 279 279 279 279 279 279 279 278 278 277 275 274 273 272 270 269 269 268 266 263 260 258 257 256 255 253 251 249 247 246 245 245 245 245 245 245 244 244 243
303 301 298 296 293 291 288 286 284 281 279 277 276 275 274 274 274 275 277 278 279 280 281 281 281 281 281 281 281 280 280 280 279 278 277 275 274 273 271 269 269 268 267 265 262 259 257 257 256 254 252 251 249 246 245 244 243 243 243 244 244 243 243
305 302 300 297 295 292 289 287 284 282 279 277 276 276 276 276 277 279 281 282 282 283 283 283 283 283 283 282 282 282 281 281 280 279 278 277 275 274 272 270 269 268 267 266 264 261 258 258 257 255 253 252 251 247 245 244 242 241 242 242 242 243 242
307 304 301 298 296 293 291 288 285 282 279 277 277 278 278 280 281 283 283 284 284 285 285 285 285 285 285 284 283 283 282 281 281 280 279 278 276 275 273 271 270 269 268 267 265 262 260 258 258 257 254 253 252 249 247 245 243 241 240 240 240 241 241
308 306 303 300 297 295 292 290 286 283 281 280 280 281 282 283 284 285 286 286 287 287 288 288 288 286 286 285 285 284 284 283 282 281 280 279 277 276 274 273 272 271 269 268 266 264 261 259 258 257 255 253 253 251 248 246 244 242 240 238 238 238 239
309 307 305 303 300 297 294 291 288 285 283 283 283 284 285 286 287 288 288 289 290 291 291 290 289 288 288 288 287 287 286 285 284 282 281 281 279 278 276 275 274 273 272 271 269 266 263 260 258 257 255 253 252 252 250 247 245 243 241 239 238 237 237
310 308 306 304 302 299 296 293 290 287 286 286 286 287 288 289 290 291 292 293 293 293 293 292 291 290 290 290 290 289 288 287 286 284 283 282 280 279 278 277 276 275 274 272 270 267 265 261 259 257 255 252 251 250 249 248 246 244 241 240 239 237 236
309 308 306 304 302 300 298 295 293 291 290 290 289 290 291 292 293 294 294 296 296 295 293 292 292 292 292 291 291 290 289 288 287 285 284 283 281 280 279 278 277 276 275 273 271 269 266 263 261 258 256 253 250 249 248 247 246 244 242 240 239 237 236
308 307 305 303 302 300 299 297 295 293 292 292 292 293 294 295 295 297 298 298 297 296 295 294 294 294 294 293 292 291 289 288 287 286 285 284 283 282 282 280 279 277 276 274 272 269 267 266 264 262 259 255 251 249 248 246 245 244 242 241 239 237 236
307 306 304 303 302 301 300 298 295 294 294 294 294 295 297 298 299 301 302 301 300 299 298 298 297 297 296 295 293 291 289 288 287 286 285 285 284 283 282 281 279 277 276 274 273 270 268 266 265 262 260 258 254 250 248 246 245 243 241 241 240 237 235
306 305 304 303 302 302 301 299 296 296 296 296 296 297 298 301 304 305 305 303 302 302 301 300 300 300 298 296 293 291 290 288 288 287 287 286 285 283 281 279 278 277 276 275 273 271 269 268 266 262 258 257 255 251 248 247 245 243 241 240 239 237 234
304 303 303 302 302 302 301 299 297 297 297 298 298 299 301 305 307 307 307 306 304 304 303 304 303 302 299 296 294 292 291 290 290 289 288 286 284 281 279 277 276 276 276 275 274 271 268 266 266 264 260 256 255 252 249 248 246 244 242 240 239 237 235
302 302 301 301 301 301 301 299 298 298 299 300 300 301 304 307 309 308 308 307 306 306 307 307 306 304 300 297 295 293 292 292 291 290 288 286 283 280 278 276 275 274 273 273 273 273 270 266 264 262 259 256 255 252 250 249 247 244 241 240 238 237 235
300 300 300 299 300 300 301 300 300 300 301 301 301 303 306 309 310 309 309 308 308 309 310 310 308 305 301 298 297 295 293 292 292 292 290 288 284 281 278 276 275 274 273 272 271 272 271 268 265 261 257 253 252 252 250 249 246 243 241 239 238 236 234
297 298 298 298 298 300 301 301 301 301 302 302 302 305 308 310 311 311 310 309 310 312 313 312 310 307 302 300 297 295 293 293 294 295 292 288 284 281 279 280 279 277 275 274 271 270 269 268 267 265 261 255 251 249 250 250 248 245 242 240 238 236 234
295 296 296 297 298 299 301 302 301 301 302 303 304 306 310 312 312 312 311 311 313 315 315 314 312 308 303 300 297 294 293 295 296 296 293 288 285 284 285 285 283 280 277 274 271 269 267 265 264 263 262 259 254 250 248 249 248 247 246 243 240 238 236
293 295 295 296 297 300 301 302 302 302 302 304 305 307 311 313 314 313 312 313 315 317 317 316 314 309 304 300 297 295 295 297 297 295 292 290 291 293 291 286 282 280 277 273 270 268 266 263 262 262 261 260 257 254 251 250 249 247 246 245 243 240 237
292 293 294 295 297 300 301 303 303 302 303 305 306 309 312 314 315 315 314 315 317 319 319 318 316 311 305 301 298 297 298 298 297 295 293 295 297 296 292 290 289 286 279 271 267 266 266 266 266 267 267 266 263 259 256 256 255 252 248 246 243 241 239
290 292 293 294 297 300 302 303 303 303 304 306 308 310 312 315 316 316 316 317 319 320 320 320 318 313 307 303 300 299 299 299 297 296 298 300 299 296 297 298 296 288 281 276 270 266 265 267 268 269 270 271 270 265 260 257 256 255 254 250 245 242 241
288 290 292 294 297 299 302 303 303 304 306 308 309 311 313 315 316 316 316 318 320 321 322 322 321 316 311 307 303 299 298 298 298 299 300 300 299 300 301 300 295 288 285 282 278 272 268 267 266 267 268 269 270 269 266 260 255 252 252 252 249 244 242
287 288 290 293 296 299 302 303 304 305 307 309 310 312 313 315 316 317 317 319 321 322 323 324 324 321 316 311 304 298 296 297 299 300 299 299 301 303 302 299 296 292 287 283 279 276 273 271 270 268 267 266 265 265 265 263 259 253 250 251 250 246 242
286 287 289 292 295 299 302 303 305 306 308 309 311 313 314 315 316 317 318 320 322 323 324 326 327 325 321 314 306 297 295 297 299 299 299 300 302 303 303 302 301 299 297 296 295 292 288 282 277 272 269 267 264 262 261 262 261 257 254 253 251 247 244
286 286 288 291 295 298 301 303 305 306 307 309 311 314 315 316 317 317 318 320 322 324 324 325 328 328 324 318 308 297 293 295 297 299 300 301 302 303 304 305 306 307 308 308 303 296 289 280 274 270 268 265 263 262 260 259 259 257 256 255 254 250 247
288 286 287 291 294 297 300 301 303 305 306 309 312 316 317 317 316 316 318 320 322 323 323 325 328 329 326 321 313 301 292 291 293 296 298 300 302 303 305 306 307 308 307 301 293 285 278 272 268 266 264 263 262 260 259 258 259 258 257 258 258 256 253
290 286 286 289 292 295 298 300 302 305 307 310 313 316 317 316 315 315 316 318 321 321 321 323 326 327 326 322 317 307 295 289 290 292 295 298 300 302 303 305 305 303 296 287 280 276 273 271 269 265 263 262 261 259 257 258 259 258 258 259 260 260 258
292 287 286 287 290 293 297 300 302 304 306 309 312 315 315 314 313 312 313 316 317 317 318 320 323 325 325 322 319 313 303 295 291 291 292 295 297 299 299 299 298 293 284 276 272 271 272 274 273 270 268 267 264 261 259 259 258 257 257 258 259 258 254
294 288 285 286 288 292 295 298 300 302 304 307 310 313 314 314 312 311 312 315 315 315 316 318 321 323 325 323 319 314 307 300 295 292 291 292 292 293 294 294 292 285 277 272 271 273 277 280 281 279 275 272 267 263 260 259 257 255 253 251 251 250 245
295 288 284 282 284 288 292 295 298 300 303 307 310 314 316 316 314 313 315 317 316 316 317 319 321 323 325 325 321 315 308 301 295 292 291 290 290 290 290 289 287 282 277 276 279 283 287 288 285 282 279 274 268 262 258 256 253 250 247 246 245 244 240
299 293 288 285 286 290 294 297 300 302 305 308 312 315 318 319 317 316 317 318 317 317 318 319 320 322 324 325 323 317 310 303 296 292 290 289 288 288 288 287 285 283 282 284 289 292 293 290 286 283 279 272 266 261 259 257 254 250 248 246 245 243 240
302 297 292 290 290 293 297 299 302 304 306 309 313 316 319 320 317 316 317 317 316 317 317 317 319 321 323 324 324 319 312 304 297 291 288 288 287 287 287 287 286 286 288 291 295 295 292 288 285 281 275 268 265 264 263 260 256 252 249 246 246 246 244
305 300 295 293 292 294 297 300 302 304 306 309 313 316 319 320 318 316 317 316 316 316 316 316 318 320 321 323 324 322 315 306 298 291 287 285 285 285 285 287 287 288 290 293 295 294 290 285 281 276 270 264 260 261 263 259 253 248 244 241 239 241 243
308 303 298 295 294 295 297 300 302 304 307 310 313 316 319 320 318 317 317 316 316 316 315 315 317 318 320 321 322 322 318 309 299 291 285 282 282 282 282 283 285 287 289 292 293 291 286 281 277 272 265 258 252 252 256 255 249 244 240 240 239 241 244
309 305 300 296 295 295 297 300 302 305 307 310 313 316 318 319 318 317 316 316 315 316 315 315 315 316 318 320 320 320 319 312 301 291 283 279 278 278 278 279 280 283 285 287 288 286 281 277 273 267 260 253 246 244 248 250 249 247 244 244 245 246 248
308 305 301 298 295 295 297 299 302 304 306 309 312 314 317 317 317 316 315 314 314 314 314 314 315 315 316 318 318 318 317 313 303 291 281 275 274 274 275 275 275 276 277 279 280 279 276 272 267 261 255 249 241 236 236 241 245 247 245 243 242 243 243